Content
SEND FEEDBACK

Daily
Averages
Monthly
Summary
United States of America

ASTORIA, OREGON


Home > North America > United States > Oregon
Elevation: 8 feet     Latitude: 46 09N     Longitude: 123 53W

WEATHER
 
SELECT A DAY
Number of Records: 254,540;   Date Range: 1/1/95 - 7/27/14
 
SHARE

PRINT THIS DATA

[ ← Previous Day ]
WEATHER ALMANAC - JANUARY 23, 2013
[ Next Day → ]
[ °C ]   °F
Weather ElementAverageHighLow
Temperature40 °F42.8 °F (11:47 am)37.9 °F (7:55 am)
Dewpoint37.7 °F41 °F (2:55 pm)32 °F (4:55 am)
Humidity91.6 %100 % (6:47 pm)73 % (3:55 am)
Barometer29.98 in30.18 in (11:55 pm)29.85 in (7:55 am)
Wind Speed3.6 mph13.8 mph (12:50 pm)
Weather ElementAverage
Visibility4.7 mi
Wind DirectionENE (77.4 °)

Weather ElementTotal
Precipitation1.48 in
Heating Degree Days24.7 (Base 65)
Averaged from 47 records on January 23, 2013
WEATHER CONDITIONS BREAKOUT
WIND DIRECTION BREAKOUT
WEATHER BY HOUR - JANUARY 23, 2013
[ °C ]   °F
Local TimeTemperatureDewpointHumidityBarometerVisibilityWind DirectionWind SpeedGust SpeedPrecipitationEventsConditions
1:55 AM39.9 °F34.0 °F79 %29.91 in10.0 miCalm0.00 inRainLight Rain
2:55 AM39.9 °F34.0 °F79 %29.91 in10.0 miCalm0.00 inOvercast
3:55 AM41.0 °F33.1 °F73 %29.88 in10.0 miEast (80°)8.1 mph0.00 inRainLight Rain
4:55 AM39.9 °F32.0 °F73 %29.86 in10.0 miEast (80°)5.8 mph0.00 inRainLight Rain
5:55 AM39.9 °F33.1 °F77 %29.89 in9.0 miCalm0.01 inRainLight Rain
6:55 AM39.0 °F35.1 °F86 %29.87 in10.0 miESE (110°)3.5 mph0.02 inRainLight Rain
7:55 AM37.9 °F34.0 °F86 %29.85 in8.0 miESE (110°)6.9 mph0.02 inRainLight Rain
8:55 AM37.9 °F36.0 °F93 %29.85 in5.0 miEast (80°)5.8 mph0.03 inRainLight Rain
9:55 AM39.9 °F37.0 °F89 %29.86 in6.0 miESE (120°)4.6 mph0.06 inRainLight Rain
10:55 AM39.9 °F37.9 °F93 %29.86 in3.0 miNE (40°)5.8 mph0.11 inRainRain
11:09 AM39.2 °F37.4 °F93 %29.86 in2.5 miNE (40°)5.8 mph0.03 inRainRain
11:19 AM41.0 °F37.4 °F87 %29.86 in4.0 miENE (70°)6.9 mph0.06 inRainRain
11:47 AM42.8 °F39.2 °F87 %29.86 in3.0 miNE (50°)4.6 mph0.12 inRainRain
11:55 AM41.0 °F39.0 °F93 %29.87 in2.5 miNE (40°)3.5 mph0.15 inRainRain
12:26 PM39.2 °F37.4 °F93 %29.86 in3.0 miNNE (30°)4.6 mph0.07 inRainLight Rain
12:50 PM39.2 °F37.4 °F93 %29.86 in2.5 miNNE (20°)13.8 mph0.09 inRainLight Rain
12:55 PM39.9 °F37.0 °F89 %29.86 in3.0 miNNE (30°)12.7 mph0.10 inRainLight Rain
1:34 PM39.2 °F37.4 °F93 %29.89 in4.0 miNorth (350°)3.5 mph0.03 inRainRain
1:55 PM41.0 °F37.4 °F87 %29.90 in3.0 miNE (50°)3.5 mphRainRain
2:14 PM41.0 °F39.2 °F93 %29.92 in3.0 miCalm0.03 inRainLight Rain
2:55 PM42.1 °F41.0 °F96 %29.94 in2.5 miCalm0.10 inRainRain
3:13 PM42.8 °F39.2 °F87 %29.95 in4.0 miESE (110°)4.6 mph0.03 inRainLight Rain
3:21 PM42.8 °F39.2 °F87 %29.95 in5.0 miESE (110°)3.5 mph0.04 inRainLight Rain
3:55 PM41.0 °F39.9 °F96 %29.96 in4.0 miESE (110°)5.8 mph0.06 inRainLight Rain
4:32 PM41.0 °F39.2 °F93 %29.98 in5.0 miNE (40°)4.6 mph0.01 inOvercast
4:55 PM41.0 °F39.9 °F96 %29.99 in5.0 miENE (70°)4.6 mph0.01 inRainLight Rain
5:12 PM42.8 °F39.2 °F87 %29.99 in6.0 miENE (60°)3.5 mph0.00 inRainLight Rain
5:55 PM41.0 °F39.9 °F96 %30.01 in7.0 miCalm0.00 inRainLight Rain
6:23 PM39.2 °F37.4 °F93 %30.03 in4.0 miWest (280°)3.5 mph0.01 inRainLight Rain
6:47 PM39.2 °F39.2 °F100 %30.04 in2.0 miWSW (240°)4.6 mph0.04 inRainRain
6:55 PM39.9 °F39.0 °F97 %30.05 in2.5 miSW (220°)5.8 mph0.06 inRainRain
7:11 PM41.0 °F39.2 °F93 %30.06 in2.0 miNNW (340°)6.9 mph0.03 inRainLight Rain
7:21 PM39.2 °F39.2 °F100 %30.07 in2.0 miNorth (360°)3.5 mph0.04 inRainLight Rain
7:27 PM39.2 °F39.2 °F100 %30.07 in3.0 miNorth (10°)4.6 mph0.04 inRainLight Rain
7:39 PM39.2 °F39.2 °F100 %30.08 in4.0 miCalm0.04 inOvercast
7:55 PM39.9 °F39.0 °F97 %30.08 in4.0 miCalm0.04 inOvercast
8:05 PM39.2 °F37.4 °F93 %30.09 in5.0 miCalmOvercast
8:55 PM39.9 °F39.0 °F97 %30.12 in5.0 miCalmOvercast
9:05 PM39.2 °F39.2 °F100 %30.12 in4.0 miCalmOvercast
9:15 PM39.2 °F39.2 °F100 %30.12 in4.0 miCalmOvercast
9:23 PM39.2 °F37.4 °F93 %30.13 in4.0 miCalmOvercast
9:55 PM39.0 °F37.0 °F93 %30.14 in3.0 miNorth (350°)3.5 mphOvercast
10:08 PM39.2 °F37.4 °F93 %30.14 in5.0 miCalmOvercast
10:40 PM39.2 °F37.4 °F93 %30.15 in5.0 miCalmOvercast
10:55 PM39.0 °F39.0 °F100 %30.15 in5.0 miCalmOvercast
11:44 PM39.2 °F37.4 °F93 %30.17 in2.5 miNorth (10°)6.9 mphOvercast
11:55 PM39.0 °F37.9 °F96 %30.18 in5.0 miNNE (30°)4.6 mphOvercast
Hourly data recorded from KAST, located miles away from Astoria, Oregon







STORIES FROM OUR PARTNERS